Weather History for Vlieland, Netherlands

Change the Weather History Date:

Friday, November 15, 2013

  Actual Average Record
Temperature  
Mean Temperature 50 °F -  
Max Temperature 53 °F 47 °F 57 °F (2006)
Min Temperature 46 °F 42 °F 32 °F (2011)
Degree Days  
Heating Degree Days 16    
Moisture  
Dew Point 43 °F    
Average Humidity 79    
Maximum Humidity 87    
Minimum Humidity 71    
Precipitation  
Precipitation 0.00 in - - ()
Sea Level Pressure  
Sea Level Pressure 30.35 in    
Wind  
Wind Speed 12 mph ()    
Max Wind Speed 18 mph    
Max Gust Speed -    
Visibility 5.9 miles    
Events      
Averages and records for this station are not official NWS values.
T = Trace of Precipitation, MM = Missing Value Source: Averaged Metar Reports

Daily Weather History Graph

Daily Weather History Graph

Search for Another Location

Airport:

Trip Planner

Search our weather history database for the weather conditions in past years. The results will help you decide how hot, cold, wet, or windy it might be!

Date:

Astronomy

Nov. 15, 2013 Rise Set
Actual Time 8:05 AM CET 4:44 PM CET
Civil Twilight 7:26 AM CET 5:22 PM CET
Nautical Twilight 6:43 AM CET 6:05 PM CET
Astronomical Twilight 6:02 AM CET 6:46 PM CET
Moon 3:45 PM CET (11/15) 5:28 AM CET (11/15)
Length of Visible Light 9h 56m
Length of Day
8h 39m
Waxing Gibbous, 95% of the Moon is Illuminated
Nov 15
Waxing Gibbous
Nov 17
Full
Nov 25
Last Quarter
Dec 3
New
Dec 9
First Quarter

Hourly Weather History & Observations

Time (CET) Temp. Windchill Dew Point Humidity Pressure Visibility Wind Dir Wind Speed Gust Speed Precip Events Conditions
12:25 AM 48.2 °F - 42.8 °F 82% 30.18 in 6.2 mi NNW 13.8 mph - N/A   Partly Cloudy
12:29 AM 48.2 °F - 42.8 °F 82% 30.18 in 6.2 mi NNW 13.8 mph - N/A   Scattered Clouds
12:33 AM 48.2 °F - 42.8 °F 82% 30.18 in 6.2 mi NNW 13.8 mph - N/A   Mostly Cloudy
12:46 AM 48.2 °F - 42.8 °F 82% 30.18 in 6.2 mi NNW 12.7 mph - N/A   Partly Cloudy
12:55 AM 48.2 °F - 42.8 °F 82% 30.18 in 6.2 mi North 11.5 mph - N/A   Partly Cloudy
1:25 AM 48.2 °F - 42.8 °F 82% 30.18 in 6.2 mi North 10.4 mph - N/A   Partly Cloudy
1:55 AM 48.2 °F - 41.0 °F 76% 30.21 in 6.2 mi North 11.5 mph - N/A   Unknown
2:25 AM 48.2 °F - 42.8 °F 82% 30.21 in 6.2 mi North 12.7 mph - N/A   Mostly Cloudy
2:55 AM 50.0 °F - 42.8 °F 76% 30.24 in 6.2 mi North 11.5 mph - N/A   Mostly Cloudy
3:25 AM 50.0 °F - 42.8 °F 76% 30.24 in 6.2 mi North 13.8 mph - N/A   Overcast
3:48 AM 50.0 °F - 42.8 °F 76% 30.24 in 6.2 mi North 10.4 mph - N/A   Scattered Clouds
3:55 AM 50.0 °F - 42.8 °F 76% 30.24 in 6.2 mi North 12.7 mph - N/A   Mostly Cloudy
4:17 AM 50.0 °F - 42.8 °F 76% 30.24 in 6.2 mi North 15.0 mph - N/A   Mostly Cloudy
4:25 AM 50.0 °F - 42.8 °F 76% 30.27 in 6.2 mi NNE 17.3 mph - N/A   Overcast
4:55 AM 50.0 °F - 41.0 °F 71% 30.27 in 6.2 mi NNE 17.3 mph - N/A   Unknown
5:25 AM 48.2 °F - 41.0 °F 76% 30.27 in 6.2 mi NNE 15.0 mph - N/A   Unknown
5:55 AM 48.2 °F - 41.0 °F 76% 30.27 in 5.0 mi NNE 12.7 mph - N/A   Haze
6:00 AM 48.2 °F - 42.8 °F 82% 30.27 in 4.3 mi NNE 12.7 mph - N/A   Haze
6:04 AM 48.2 °F - 41.0 °F 76% 30.27 in 5.0 mi NNE 13.8 mph - N/A   Haze
6:13 AM 48.2 °F - 41.0 °F 76% 30.27 in 4.3 mi NNE 13.8 mph - N/A   Haze
6:25 AM 48.2 °F - 42.8 °F 82% 30.30 in 5.0 mi NNE 12.7 mph - N/A   Haze
6:29 AM 48.2 °F - 42.8 °F 82% 30.30 in 4.3 mi NNE 12.7 mph - N/A   Haze
6:37 AM 50.0 °F - 42.8 °F 76% 30.30 in 5.6 mi NNE 11.5 mph - N/A   Haze
6:50 AM 50.0 °F - 42.8 °F 76% 30.30 in 5.0 mi NNE 15.0 mph - N/A   Haze
6:55 AM 50.0 °F - 44.6 °F 82% 30.30 in 5.6 mi NNE 16.1 mph - N/A   Haze
6:59 AM 50.0 °F - 44.6 °F 82% 30.30 in 5.6 mi North 17.3 mph - N/A   Haze
7:09 AM 48.2 °F - 42.8 °F 82% 30.30 in 6.2 mi NNE 15.0 mph - N/A   Scattered Clouds
7:25 AM 46.4 °F 41.9 °F 42.8 °F 87% 30.30 in 6.2 mi NE 9.2 mph - N/A   Partly Cloudy
7:30 AM 46.4 °F 42.4 °F 42.8 °F 87% 30.33 in 4.3 mi NE 8.1 mph - N/A   Partly Cloudy
7:37 AM 48.2 °F - 42.8 °F 82% 30.33 in 5.0 mi NNE 12.7 mph - N/A   Mist
7:44 AM 48.2 °F - 44.6 °F 87% 30.33 in 4.3 mi NNE 15.0 mph - N/A   Mist
7:49 AM 48.2 °F - 42.8 °F 82% 30.33 in 5.0 mi NNE 15.0 mph - N/A   Mist
7:55 AM 50.0 °F - 44.6 °F 82% 30.33 in 5.6 mi North 13.8 mph - N/A   Partly Cloudy
8:01 AM 50.0 °F - 44.6 °F 82% 30.33 in 6.2 mi NNE 15.0 mph - N/A   Scattered Clouds
8:07 AM 50.0 °F - 44.6 °F 82% 30.33 in 6.2 mi NNE 15.0 mph - N/A   Mostly Cloudy
8:13 AM 50.0 °F - 44.6 °F 82% 30.33 in 5.6 mi North 15.0 mph - N/A   Mostly Cloudy
8:19 AM 50.0 °F - 44.6 °F 82% 30.33 in 6.2 mi North 15.0 mph - N/A   Mostly Cloudy
8:25 AM 50.0 °F - 44.6 °F 82% 30.33 in 6.2 mi North 16.1 mph - N/A   Mostly Cloudy
8:31 AM 50.0 °F - 44.6 °F 82% 30.36 in 5.6 mi North 16.1 mph - N/A   Scattered Clouds
8:47 AM 50.0 °F - 44.6 °F 82% 30.36 in 6.2 mi NNE 16.1 mph - N/A   Unknown
8:55 AM 50.0 °F - 44.6 °F 82% 30.36 in 6.2 mi NNE 15.0 mph - N/A   Partly Cloudy
9:04 AM 50.0 °F - 44.6 °F 82% 30.36 in 6.2 mi North 15.0 mph - N/A   Scattered Clouds
9:08 AM 50.0 °F - 44.6 °F 82% 30.36 in 5.6 mi North 15.0 mph - N/A   Scattered Clouds
9:12 AM 50.0 °F - 44.6 °F 82% 30.36 in 5.6 mi North 15.0 mph - N/A   Mostly Cloudy
9:25 AM 50.0 °F - 44.6 °F 82% 30.36 in 6.2 mi North 15.0 mph - N/A   Scattered Clouds
9:30 AM 50.0 °F - 44.6 °F 82% 30.39 in 6.2 mi North 13.8 mph - N/A   Scattered Clouds
9:34 AM 50.0 °F - 44.6 °F 82% 30.39 in 6.2 mi North 13.8 mph - N/A   Scattered Clouds
9:55 AM 50.0 °F - 46.4 °F 87% 30.39 in 6.2 mi North 17.3 mph - N/A   Unknown
10:25 AM 50.0 °F - 46.4 °F 87% 30.39 in 6.2 mi North 18.4 mph - N/A   Mostly Cloudy
10:32 AM 50.0 °F - 46.4 °F 87% 30.39 in 6.2 mi North 17.3 mph - N/A   Partly Cloudy
10:55 AM 51.8 °F - 46.4 °F 82% 30.39 in 6.2 mi North 17.3 mph - N/A   Mostly Cloudy
11:10 AM 50.0 °F - 46.4 °F 87% 30.39 in 3.7 mi North 18.4 mph - N/A   Overcast
11:14 AM 50.0 °F - 46.4 °F 87% 30.39 in 5.6 mi North 18.4 mph - N/A   Mostly Cloudy
11:25 AM 51.8 °F - 46.4 °F 82% 30.42 in 6.2 mi North 15.0 mph - N/A   Overcast
11:55 AM 50.0 °F - 44.6 °F 82% 30.42 in 6.2 mi NNE 16.1 mph - N/A   Overcast
12:00 PM 51.8 °F - 44.6 °F 76% 30.42 in 6.2 mi NNE 16.1 mph - N/A   Overcast
12:04 PM 51.8 °F - 44.6 °F 76% 30.42 in 6.2 mi NNE 16.1 mph - N/A   Mostly Cloudy
12:15 PM 51.8 °F - 44.6 °F 76% 30.42 in 6.2 mi NNE 15.0 mph - N/A   Overcast
12:19 PM 51.8 °F - 44.6 °F 76% 30.42 in 6.2 mi NNE 15.0 mph - N/A   Overcast
12:25 PM 51.8 °F - 44.6 °F 76% 30.42 in 6.2 mi North 13.8 mph - N/A   Overcast
12:55 PM 53.6 °F - 44.6 °F 72% 30.42 in 6.2 mi North 12.7 mph - N/A   Overcast
1:25 PM 51.8 °F - 44.6 °F 76% 30.42 in 6.2 mi North 12.7 mph - N/A   Overcast
1:55 PM 51.8 °F - 42.8 °F 71% 30.42 in 6.2 mi North 12.7 mph - N/A   Overcast
2:19 PM 50.0 °F - 42.8 °F 76% 30.42 in 6.2 mi North 11.5 mph - N/A   Mostly Cloudy
2:25 PM 51.8 °F - 42.8 °F 71% 30.42 in 6.2 mi North 12.7 mph - N/A   Scattered Clouds
2:29 PM 51.8 °F - 42.8 °F 71% 30.42 in 6.2 mi North 12.7 mph - N/A   Scattered Clouds
2:30 PM 51.8 °F - 42.8 °F 71% 30.42 in 6.2 mi North 12.7 mph - N/A   Mostly Cloudy
2:37 PM 51.8 °F - 42.8 °F 71% 30.42 in 6.2 mi North 11.5 mph - N/A   Scattered Clouds
2:55 PM 50.0 °F - 42.8 °F 76% 30.42 in 6.2 mi North 11.5 mph - N/A   Partly Cloudy
3:25 PM 50.0 °F - 42.8 °F 76% 30.42 in 6.2 mi North 11.5 mph - N/A   Overcast
3:55 PM 50.0 °F - 42.8 °F 76% 30.42 in 6.2 mi North 8.1 mph - N/A   Mostly Cloudy
4:25 PM 48.2 °F - 41.0 °F 76% 30.42 in 6.2 mi North 5.8 mph - N/A   Unknown
4:55 PM 48.2 °F - 42.8 °F 82% 30.42 in 6.2 mi North 8.1 mph - N/A   Unknown
5:25 PM 48.2 °F - 42.8 °F 82% 30.45 in 6.2 mi NNW 10.4 mph - N/A   Unknown
5:55 PM 48.2 °F - 41.0 °F 76% 30.45 in 6.2 mi NNW 6.9 mph - N/A   Mostly Cloudy
6:25 PM 46.4 °F 43.5 °F 41.0 °F 81% 30.45 in 6.2 mi NW 5.8 mph - N/A   Unknown
6:55 PM 46.4 °F 44.3 °F 41.0 °F 81% 30.45 in 6.2 mi NW 4.6 mph - N/A   Unknown
7:25 PM 46.4 °F 42.9 °F 41.0 °F 81% 30.45 in 6.2 mi WNW 6.9 mph - N/A   Unknown
7:55 PM 48.2 °F - 41.0 °F 76% 30.45 in 6.2 mi NW 6.9 mph - N/A   Scattered Clouds
8:25 PM 48.2 °F - 41.0 °F 76% 30.45 in 6.2 mi NW 6.9 mph - N/A   Partly Cloudy
8:55 PM 48.2 °F - 41.0 °F 76% 30.48 in 6.2 mi WNW 8.1 mph - N/A   Unknown
9:25 PM 48.2 °F - 41.0 °F 76% 30.45 in 6.2 mi WNW 9.2 mph - N/A   Unknown
9:55 PM 48.2 °F - 41.0 °F 76% 30.48 in 6.2 mi WNW 9.2 mph - N/A   Scattered Clouds
10:25 PM 48.2 °F - 41.0 °F 76% 30.45 in 6.2 mi WNW 9.2 mph - N/A   Partly Cloudy
10:55 PM 46.4 °F 41.9 °F 41.0 °F 81% 30.45 in 6.2 mi West 9.2 mph - N/A   Unknown
11:25 PM 46.4 °F 41.9 °F 41.0 °F 81% 30.45 in 6.2 mi West 9.2 mph - N/A   Unknown
11:55 PM 46.4 °F 41.9 °F 41.0 °F 81% 30.45 in 6.2 mi West 9.2 mph - N/A   Unknown